Flag for India Weather past 2 weeks in Varanasi, Uttar Pradesh, India

Now
91 °F

Scattered clouds.


Feels Like: 100 °F
Forecast: 81 / 95 °F
Wind: 10 mph from Southeast

Location: Varanasi / Babatpur

Current Time: Aug 30, 2014 at 3:46:25 PM

Latest Report: Aug 30, 2014 at 3:00 PM


Visibility: 4 mi

Pressure: 29.53 "Hg

Humidity: 56%

Dew point: 73 °F

Location of VaranasiLocation

Historic Weather in Varanasi — Graph

°F

Varanasi temperature yesterday

Maximum temperature yesterday: 100 °F (at 2:00 PM)
Minimum temperature yesterday: 81 °F (at 5:00 AM)
Average temperature yesterday: 89 °F

Past Weeks' High & Low Weather Summary

 TemperatureHumidityPressure
High100 °F (Aug 29, 2:00 PM)94% (Aug 15, 11:00 PM)29.77 "Hg (Aug 15, 11:00 PM)
Low79 °F (Aug 20, 10:00 PM)45% (Aug 29, 2:00 PM)29.53 "Hg (Aug 26, 5:00 PM)
Average88 °F75%29.64 "Hg
* Reported Aug 15 2:00 PM — Aug 30 2:00 PM, Varanasi, Weather by CustomWeather, © 2014

Note: Actual official high and low records may vary slightly from our data, if they occured in-between our weather recording intervals... More about our weather records

Advertising

Varanasi weather history for previous 24 hours

 ConditionsComfort  
Time TempWeatherWind HumidityBarometerVisibility
2:00 PM
Aug 30
91 °FScattered clouds.10 mph56%29.56 "Hg4 mi
1:00 PM91 °FScattered clouds.9 mph63%29.59 "Hg3 mi
12:00 PM91 °FScattered clouds.12 mph63%29.62 "Hg3 mi
11:00 AM90 °FScattered clouds.9 mph71%29.62 "Hg3 mi
9:00 AM90 °FHaze.6 mph75%29.65 "Hg2 mi
8:00 AM84 °FHaze.7 mph84%29.62 "Hg2 mi
7:00 AM82 °FHaze.3 mph89%29.62 "Hg2 mi
6:00 AM81 °FHaze.3 mph94%29.62 "Hg2 mi
5:00 AM82 °FHaze.3 mph84%29.62 "Hg2 mi
4:00 AM82 °FHaze.3 mph84%29.62 "Hg2 mi
12:00 AM84 °FClear.2 mph84%29.62 "Hg2 mi
11:00 PM
Aug 29
86 °FHaze.2 mph79%29.62 "Hg2 mi
10:00 PM86 °FHaze.2 mph79%29.62 "Hg2 mi
9:00 PM88 °FHaze.2 mph70%29.62 "Hg3 mi
8:00 PM88 °FHaze.3 mph70%29.59 "Hg3 mi
7:00 PM88 °FHaze.3 mph75%29.59 "Hg3 mi
6:00 PM91 °FHaze.5 mph63%29.59 "Hg3 mi
5:00 PM93 °FHaze.7 mph56%29.56 "Hg3 mi
4:00 PM95 °FScattered clouds.7 mph50%29.56 "Hg3 mi
3:00 PM99 °FScattered clouds.9 mph47%29.56 "Hg3 mi
Weather by CustomWeather, © 2014

See weather overviewHow to use our weather pages